This is the latest recevied weather packets stored in our database for station/object KC5EZZ-2. If no packets are shown the sender has not sent any weather packets the latest 10 day(s).
| Time | Temp. | Humidity | Pressure | Rain* | Wind** | Luminosity | Snow |
|---|---|---|---|---|---|---|---|
| 1777560388 | 15° C | - | - | 0 mm | 2.68 m/s, 49° | - | - |
| 1777560089 | 15° C | - | - | 0 mm | 2.24 m/s, 86° | - | - |
| 1777559789 | 14.44° C | - | - | 0 mm | 3.13 m/s, 27° | - | - |
| 1777559487 | 14.44° C | - | - | 0 mm | 4.02 m/s, 70° | - | - |
| 1777559188 | 14.44° C | - | - | 0 mm | 3.58 m/s, 83° | - | - |
| 1777558888 | 13.89° C | - | - | 0 mm | 3.13 m/s, 51° | - | - |
| 1777558286 | 13.89° C | - | - | 0 mm | 4.02 m/s, 128° | - | - |
| 1777557987 | 13.89° C | - | - | 0 mm | 4.47 m/s, 128° | - | - |
| 1777557685 | 13.89° C | - | - | 0 mm | 3.13 m/s, 72° | - | - |
| 1777557385 | 13.89° C | - | - | 0 mm | 3.58 m/s, 49° | - | - |
| 1777557086 | 13.89° C | - | - | 0 mm | 1.79 m/s, 105° | - | - |
| 1777556783 | 13.89° C | - | - | 0 mm | 2.68 m/s, 30° | - | - |
| 1777556484 | 13.89° C | - | - | 0 mm | 3.13 m/s, 24° | - | - |
| 1777556185 | 13.89° C | - | - | 0 mm | 2.68 m/s, 24° | - | - |
| 1777555882 | 13.33° C | - | - | 0 mm | 2.68 m/s, 31° | - | - |
| 1777555583 | 13.33° C | - | - | 0 mm | 2.68 m/s, 68° | - | - |
| 1777555283 | 13.89° C | - | - | 0 mm | 3.58 m/s, 45° | - | - |
| 1777554981 | 13.33° C | - | - | 0 mm | 3.13 m/s, 17° | - | - |
| 1777554682 | 13.33° C | - | - | 0 mm | 4.47 m/s, 350° | - | - |
| 1777554382 | 13.33° C | - | - | 0 mm | 4.47 m/s, 338° | - | - |
| 1777554080 | 13.33° C | - | - | 0 mm | 4.47 m/s, 7° | - | - |
| 1777553781 | 13.33° C | - | - | 0 mm | 4.92 m/s, 7° | - | - |
| 1777553481 | 13.33° C | - | - | 0 mm | 3.13 m/s, 0° | - | - |
| 1777553179 | 13.33° C | - | - | 0 mm | 3.13 m/s, 13° | - | - |
| 1777552880 | 13.33° C | - | - | 0 mm | 3.13 m/s, 330° | - | - |
* Rain latest hour (hover to see other rain measurements)
** Current wind speed in m/s (hover to see current wind gust speed)